Simultaneous Nadir Overpasses (SNOs) Predictions

Prediction of SNOs between NOAA-19 and TERRA Satellite Orbit:

Table of predicted SNOs for the next 14.0 days since TLE Epoch: 7/27/2024
Index Date (NOAA-19) Time (NOAA-19) Lat,Lon (NOAA-19) SZA (NOAA-19 ) Date (TERRA) Time (TERRA) Lat,Lon (TERRA) SZA (TERRA ) Distance(km) Time Diff (sec)
1 07/27/2024 08:42:29 -77.01,-127.21 122.12 07/27/2024 08:43:29 -77.02,-127.12 122.10 2.77 60
2 07/27/2024 09:33:20 77.53, 42.44 58.44 07/27/2024 09:32:39 77.52, 42.44 58.43 0.46 41
3 07/29/2024 12:32:19 77.30, -3.31 58.70 07/29/2024 12:32:19 77.30, -3.37 58.70 1.69 0
4 07/31/2024 15:31:22 76.90, -49.81 58.80 07/31/2024 15:32:02 76.91, -49.74 58.81 1.83 40
5 07/31/2024 16:22:05 -77.38, 119.67 120.68 07/31/2024 16:21:13 -77.38, 119.69 120.69 0.39 52
6 08/02/2024 19:21:05 -77.11, 73.73 120.43 08/02/2024 19:20:53 -77.11, 73.75 120.43 0.50 12
7 08/04/2024 22:20:05 -76.83, 27.82 120.16 08/04/2024 22:20:33 -76.82, 27.77 120.16 1.40 28
8 08/04/2024 23:10:57 77.27,-162.98 60.32 08/04/2024 23:09:44 77.27,-162.92 60.32 1.78 73
9 08/07/2024 01:19:08 -76.40, -18.58 120.00 08/07/2024 01:20:15 -76.40, -18.54 120.00 1.08 67
10 08/07/2024 02:09:56 77.00, 151.15 60.63 08/07/2024 02:09:23 77.01, 151.17 60.63 0.49 33



Historial Predications of SNOs between NOAA-19 and TERRA
